This is the latest recevied weather packets stored in our database for station/object W7TRD. If no packets are shown the sender has not sent any weather packets the latest 10 day(s).
| Time | Temp. | Humidity | Pressure | Rain* | Wind** | Luminosity | Snow |
|---|---|---|---|---|---|---|---|
| 1777499618 | 21.11° C | 48% | 1022.6 hPa | 0 mm | - | 652 W/m² | - |
| 1777499315 | 21.11° C | 49% | 1022.5 hPa | 0 mm | - | 662 W/m² | - |
| 1777499013 | 20.56° C | 48% | 1022.6 hPa | 0 mm | - | 669 W/m² | - |
| 1777498709 | 21.11° C | 48% | 1022.6 hPa | 0 mm | - | 677 W/m² | - |
| 1777498406 | 20.56° C | 50% | 1022.8 hPa | 0 mm | - | 683 W/m² | - |
| 1777498103 | 20° C | 49% | 1022.9 hPa | 0 mm | - | 688 W/m² | - |
| 1777497800 | 20° C | 50% | 1022.9 hPa | 0 mm | - | 694 W/m² | - |
| 1777497496 | 20° C | 50% | 1023 hPa | 0 mm | - | 701 W/m² | - |
| 1777497193 | 19.44° C | 51% | 1022.9 hPa | 0 mm | - | 707 W/m² | - |
| 1777496889 | 19.44° C | 54% | 1022.9 hPa | 0 mm | - | 710 W/m² | - |
| 1777496586 | 19.44° C | 52% | 1022.9 hPa | 0 mm | - | 717 W/m² | - |
| 1777496282 | 18.89° C | 52% | 1022.9 hPa | 0 mm | - | 721 W/m² | - |
| 1777495978 | 18.89° C | 53% | 1023 hPa | 0 mm | - | 728 W/m² | - |
| 1777495674 | 18.89° C | 53% | 1022.8 hPa | 0 mm | - | 729 W/m² | - |
| 1777495370 | 18.89° C | 53% | 1022.9 hPa | 0 mm | - | 734 W/m² | - |
| 1777495068 | 18.89° C | 54% | 1023.4 hPa | 0 mm | - | 736 W/m² | - |
| 1777494765 | 18.89° C | 54% | 1023.2 hPa | 0 mm | - | 739 W/m² | - |
| 1777494462 | 18.33° C | 57% | 1023.2 hPa | 0 mm | - | 742 W/m² | - |
| 1777494158 | 18.33° C | 55% | 1023.4 hPa | 0 mm | - | 744 W/m² | - |
| 1777493856 | 18.33° C | 56% | 1023.4 hPa | 0 mm | - | 745 W/m² | - |
| 1777493554 | 18.33° C | 56% | 1023.5 hPa | 0 mm | - | 748 W/m² | - |
| 1777493251 | 17.78° C | 55% | 1023.5 hPa | 0 mm | - | 749 W/m² | - |
| 1777492947 | 17.78° C | 55% | 1023.4 hPa | 0 mm | - | 748 W/m² | - |
| 1777492645 | 17.22° C | 56% | 1023.6 hPa | 0 mm | - | 748 W/m² | - |
| 1777492345 | 17.22° C | 57% | 1023.7 hPa | 0 mm | - | 747 W/m² | - |
* Rain latest hour (hover to see other rain measurements)
** Current wind speed in m/s (hover to see current wind gust speed)